Regional Weather Roundup
Issued by NWS

Home | Current Version | Previous Version | Text Only | Print | Product List | Glossary On
Versions: 1 2 3 4 5 6 7 8 9 10 11 12 13 14 15 16 17 18 19 20 21 22 23 24 25 26 27 28 29 30 31 32 33 34 35 36 37 38 39 40 41 42 43 44 45 46 47 48 49 50
000
ASHW40 PHFO 261343
RWRHI

WEATHER ROUNDUP FOR HAWAII
NATIONAL WEATHER SERVICE HONOLULU HI
300 AM HST FRI AUG 26 2016

THIS IS AN AUTOMATED REPORT THAT HAS NOT BEEN QUALITY CONTROLLED.

NOTE..."FAIR" INDICATES FEW OR NO CLOUDS BELOW 12,000 FEET WITH NO
SIGNIFICANT WEATHER AND/OR OBSTRUCTIONS TO VISIBILITY.

* - THESE SITES REPORT LIMITED FIELDS

HIZ001>004-261400-
KAUAI-NIIHAU-

CITY           SKY/WX    TMP DP  RH WIND       PRES   REMARKS
LIHUE APT      CLOUDY    79  70  74 NE14      30.06F
PORT ALLEN*      N/A     77 N/A N/A NE13        N/A
POIPU*           N/A     75 N/A N/A NE5         N/A
PRINCEVILLE*     N/A     73 N/A N/A S2          N/A
KOKOLE POINT*  NOT AVBL
MOLOAA DAIRY*    N/A     73  70  88 SE3G12      N/A
WAIMEA HTS*      N/A     75  63  64 NE2G8       N/A
PUU OPAE*        N/A    N/A N/A N/A NE3G12      N/A
PUU LUA*       NOT AVBL
MAKAHA RIDGE*    N/A     72  61  68 E1G9        N/A
$$

HIZ005>011-261400-
OAHU-

CITY           SKY/WX    TMP DP  RH WIND       PRES   REMARKS
HONOLULU       PTCLDY    77  69  76 E7        30.02F
KALAELOA       MOCLDY    76  69  79 NE6       30.04F
KANEOHE MCB    CLEAR     79  70  74 E7        30.01F
WHEELER FIELD  FAIR      71  68  89 W5        30.05F
BELLOWS*         N/A    N/A N/A N/A NE16        N/A
KAHUKU*          N/A    N/A N/A N/A VRB1        N/A
WHEELER*         N/A    N/A N/A N/A N3          N/A
WAIANAE HARBOR NOT AVBL
DILLINGHAM*      N/A     91  88  89 MISG        N/A  HX 127
KAHUKU TRN*      N/A     84  79  84 W5G17       N/A  HX  96
KAWAILOA*        N/A     72  66  83 E9G17       N/A
KII*             N/A     79  70  73 E15         N/A
MAKUA RANGE*     N/A     75  68  78 NW8         N/A
OAHU FOREST NW   N/A     72  64  78 E15G25      N/A
SCHOFIELD BRK*   N/A     82  81  94 W1          N/A  HX  95
SCHOFIELD S*   NOT AVBL
WAIANAE VLY*     N/A     73  64  73 S3G13       N/A
KUAOKALA*        N/A     73  68  83 NE8G14      N/A
HONOULIUULI*   NOT AVBL
MOKUOLOE IS*   NOT AVBL
PALEHUA*         N/A     66  66 100 NE8G15      N/A
WAIAWA PHB*    NOT AVBL
$$

HIZ012>013-261400-
MOLOKAI-

CITY           SKY/WX    TMP DP  RH WIND       PRES   REMARKS
MOLOKAI AIRPT  PTCLDY    78  69  73 NE9G21    30.03F
KALAUPAPA      NOT AVBL
MAKAPULAPAI*     N/A     77  70  78 NE13G20     N/A
MOLOKAI 1*       N/A     82  79  89 E3G12       N/A  HX  93
PUU ALII*        N/A     60  60 100 N2G9        N/A
$$

HIZ016-261400-
KAHOOLAWE-

CITY           SKY/WX    TMP DP  RH WIND       PRES   REMARKS
KAHOOLAWE*       N/A     70 N/A N/A NE1         N/A
HAKIOAWA*        N/A     71  67  88 MISG      30.43
HONOKANAIA*      N/A     79  70  74 NE8G24    29.96F
KANELOA*         N/A     75  70  83 E10G21    30.08F
KEALIALALO*    NOT AVBL
LUA MAKIKA*    NOT AVBL
$$

HIZ014>015-261400-
LANAI-

CITY           SKY/WX    TMP DP  RH WIND       PRES   REMARKS
LANAI CITY     FAIR      71  66  84 NE10G17   30.07F
LANAI 1*         N/A     72  68  88 NE14G23     N/A
$$

HIZ017>028-261400-
MAUI-

CITY           SKY/WX    TMP DP  RH WIND       PRES   REMARKS
KAHULUI        PTCLDY    76  69  79 NE9       30.01F
KAPALUA-W MAUI NOT AVBL
HANA AIRPORT   LGT RAIN  75  72  88 NE10      30.06S
HANA*            N/A     75 N/A N/A S3          N/A
HALEAKALA SUMM   N/A     50   9  18 E17G31      N/A
MAALAEA BAY*     N/A     77 N/A N/A N18G26      N/A
HALEAKALA*     NOT AVBL
KAUPO GAP*       N/A     70  57  64 N12G23      N/A
KULA 1*          N/A     48  48 100 NE3         N/A
$$

HIZ023>026-261400-
BIG ISLAND OF HAWAII COAST AND LOWER SLOPES-

CITY           SKY/WX    TMP DP  RH WIND       PRES   REMARKS
KAILUA KONA    PTCLDY    80  71  74 S5        29.95F
HILO           MOCLDY    73  72  94 SW6       30.02S
HONOKAA*         N/A     68 N/A N/A VRB1        N/A
KAWAIHAE MWT*    N/A     82 N/A N/A SW3G10      N/A
KAWAIHAE*        N/A     82 N/A N/A W9        29.95F
SOUTH POINT*     N/A     72 N/A N/A N14G20      N/A
UPOLU AIRPORT* NOT AVBL
KAMUELA*       PTSUNNY   64  63  94 NE15      30.10S
HAKALAU*         N/A     54  53  98 N2          N/A
KALOKO-HONOKO*   N/A     75  70  83 E3        29.94F
PALI 2*          N/A     66  63  88 SW12G17     N/A
KEALAKOMO*       N/A     73  68  83 N9G18       N/A
KAUPULEHU*       N/A     70  63  78 SE6G13      N/A
KAPAPALA*        N/A     68  67  98 E2          N/A
LOWER KAHUKU*    N/A     61  59  94 N1          N/A
PUHE CS*         N/A     81  64  57 W3G14       N/A
PUHO CS*         N/A     71  32  23 E2          N/A
PTA KEAMUKU*     N/A     61  55  82 CALM        N/A
WAIKOLOA*        N/A     75  63  64 E17G25      N/A
$$

HIZ027>028-261400-
BIG ISLAND OF HAWAII INTERIOR AND SUMMMITS-

CITY           SKY/WX    TMP DP  RH WIND       PRES   REMARKS
BRADSHAW FIELD CLOUDY    50  48  92 SE5       30.33F
MK VISITOR CEN   N/A     46  25  42 N1          N/A
MAUNA KEA*       N/A     37   7  28 SE16        N/A  WCI  28
MAUNA LOA*       N/A     45   9  23 MISG        N/A
MAUNA LOA 1*   NOT AVBL
PTA KIPUKA*      N/A     57  57 100 SE5G10      N/A
PTA RANGE 17*    N/A     57  52  82 SE8         N/A
PTA WEST*        N/A     57  54  88 SE10        N/A
NENE CABIN*      N/A     52  52 100 N3          N/A
AHUMOA*          N/A     52  45  77 E7          N/A
PTA PORTABLE*  NOT AVBL
PUU MALI*      NOT AVBL
$$

HIC003-261400-
NORTHWEST ISLANDS-

CITY           SKY/WX    TMP DP  RH WIND       PRES   REMARKS
MIDWAY ISLAND  CLOUDY    75  66  73 NE9       30.06F HAZE
MIDWAY NOS*      N/A     77 N/A N/A MISG      30.05S
FRENCH FRIGATE NOT AVBL
$$

PHZ110>124-180-261400-
BUOY REPORTS

STATION/POSITION TIME  TEMP    WIND        PRES    WAVE   SWELL
                       AIR SEA DIR/SP/G            HT/PER HT/DIR
                 (UTC) (F)     (DEG/KT/KT) (MB)    (FT/S) (FT/D)
BUOY 51001       NOT AVBL
BUOY 51101       1250   80 81  110/ 10/ 12 1018.4F   4/ 7   3/100
BUOY 51100       NOT AVBL
BUOY 51002       NOT AVBL
BUOY 51003       1250   81 83   70/ 12/ 14 1015.6F   6/14   5/170
BUOY 51004       1250   80 82   50/ 16/ 17 1014.3F   7/ 6   5/ 90
BARBERS PT BUOY  NOT AVBL
WAIMEA BAY BUOY  1304      81                N/A     3/ 5
KAILUA BAY BUOY  1311      81                N/A     5/ 6   2/130
LANAI BUOY       1315      82                N/A     3/14   2/190
BARBERS PT 2     NOT AVBL
PAUWELA MAUI     1309      80                N/A     4/ 6
HILO             1312      81                N/A     6/ 7   2/130
KANEOHE BAY BUOY 1306      80                N/A     4/ 6
HANALEI KAUAI    NOT AVBL
KAHULUI HARBOR   1300   78 82   50/  8/ 11 1016.3F
HONOLULU HARBOR  1300   79 82   60/  3/  4 1017.4F
KILO NALU        NOT AVBL
HILO HARBOR      1300   73 80  220/  3/  4 1016.3F
MOKUOLOE         1200   79 83   70/  9/ 13 1017.5F
NAWILIWILI       1300   75 82  260/  5/  7 1017.6F
WHOTS BUOY       NOT AVBL
BUOY 51028       NOT AVBL
$$

......................KEY........................................
  SKY/WX - SKY CONDITIONS/PRESENT WEATHER
  TMP    - TEMPERATURE IN FAHRENHEIT
  DWPT   - DEWPOINT IN FAHRENHEIT
  RH     - RELATIVE HUMIDITY IN PERCENT
  WIND   - DIRECTION AND SPEED /MPH FOR ISLANDS...KTS FOR BUOYS/
  PRES   - MEAN SEA LEVEL PRESSURE IN INCHES OF HG
  VSB    - VISIBILITY IN MILES
  HX     - HEAT INDEX
  WCI    - WIND CHILL INDEX
  VRB    - VARIABLE WIND DIRECTION
  N/A    - NOT AVAILABLE




USA.gov is the U.S. government's official web portal to all federal, state and local government web resources and services.